www.pogodaiklimat.ru
Время
(UTC), дата
18 27.07
21 27.07
00 28.07
03 28.07
06 28.07
09 28.07
12 28.07
15 28.07
18 28.07
21 28.07
00 29.07
03 29.07
06 29.07
09 29.07
12 29.07
15 29.07
18 29.07
21 29.07
00 30.07
03 30.07
06 30.07
09 30.07
12 30.07
15 30.07
18 30.07
21 30.07
00 31.07
03 31.07
06 31.07
09 31.07
12 31.07
15 31.07
18 31.07
21 31.07
00 1.08
03 1.08
06 1.08
09 1.08
12 1.08
15 1.08
18 1.08
21 1.08
00 2.08
03 2.08
06 2.08
09 2.08
12 2.08
15 2.08
18 2.08
21 2.08
00 3.08
03 3.08
06 3.08
09 3.08
12 3.08
15 3.08
Ветер
(напр.,м/с)
Видим. Явления Облачность Т
(С)
Тd
(С)
f
(%)
Тe
(С)
Тes
(С)
Комфортность P
(гПа)
Po
(гПа)
Тmin
(С)
Tmax
(С)
R
(мм)
R24
(мм)
S
(см)
З 1 н/о ясно +14.9 +14.1 95 +15 +15 1006.3 958.0
ЮЗ 2 50 км 6/4 600 м
[Cb cap Ci fib]
+14.5 +13.3 93 +14 +14 1007.8 959.4
штиль 0 50 км 10/10 600 м
[Cb cap]
+16.3 +14.4 89 +16 +16 1009.0 960.8 +13.8
З 3 50 км 9/9 600 м
[Cb cap]
+21.1 +14.7 67 +24 +25 комфорт 1008.3 960.9
СЗ 5 50 км 9/9 600 м
[Cb cap]
+24.3 +14.7 55 +27 +28 жарко 1008.0 961.1
З 6 50 км 4/3 1000 м
[Cu med, cong Ci fib]
+24.7 +13.6 50 +27 +29 жарко 1007.4 960.6
СЗ 3 50 км 3/0
[Ci fib]
+22.6 +14.0 58 +26 +26 жарко 1008.3 961.1 +25.4
В 1 н/о 3/0
[Ci fib]
+17.0 +13.5 80 +18 +18 1009.7 961.6
штиль 0 н/о ясно +12.2 +11.2 94 +12 +12 1010.4 961.5
штиль 0 500 м туман ?/? +12.3 +11.7 96 +12 +12 1010.2 961.3
В 1 10 км в посл. час туман 10/10 300 м
[St]
+13.5 +12.7 95 +14 +14 1010.4 961.6 +11.0
С 1 50 км 10/1 1000 м
[Cu med, cong Ac trans Ci fib]
+22.4 +15.1 63 +26 +32 жарко 1007.3 960.1
ЮЗ 1 50 км 10/3 1000 м
[Cb cap Ci sp]
+28.0 +12.6 39 +29 +38 жарко 1004.7 958.5
СЗ 2 50 км 10/3 600 м
[Cb cap Ac trans Ci fib]
+26.4 +15.5 51 +29 +31 жарко 1004.4 958.0
ЮЗ 2 50 км 10/4 600 м
[Cb cap Ac trans Ci fib]
+24.6 +14.9 55 +27 +27 жарко 1004.4 957.7 +29.0
З 3 н/о 10/6 600 м
[Cb cap Ac trans Ci fib]
+21.7 +15.0 66 +25 +25 комфорт 1005.1 958.0
С 1 н/о 6/4 600 м
[Cb cap Ci fib]
+18.5 +15.5 83 +20 +20 1005.2 957.5
штиль 0 50 км 10/8 600 м
[Cb cap Ci fib]
+15.9 +14.6 92 +16 +16 1005.8 957.7
СЗ 1 50 км 8/3 1000 м
[Sc Ci fib]
+19.5 +16.0 80 +23 +25 комфорт 1005.5 958.0 +15.6
В 1 50 км 8/4 1000 м
[Cb cap Cc]
+25.1 +15.0 53 +28 +35 жарко 1003.6 957.1
штиль 0 50 км 9/8 600 м
[Cb cap Ci fib]
+25.3 +14.8 52 +28 +31 жарко 1002.4 956.0
ЮЗ 3 10 км гроза, ливневой дождь 10/10 600 м
[Cb cap]
+17.7 +16.9 95 +18 +18 1005.6 957.8
Ю 1 50 км {гроза, ливн. дождь} 10/10 600 м
[Cb cap]
+18.4 +17.1 92 +20 +20 1005.5 957.8 +27.2 18
Ю 1 н/о 10/10 600 м
[Cb cap]
+17.1 +16.4 96 +18 +18 1006.4 958.5
З 1 н/о 10/10 300 м
[St]
+17.0 +16.4 96 +18 +18 1006.0 958.1
З 2 10 км 10/10 300 м
[St]
+16.4 +15.9 97 +16 +16 1006.4 958.3
З 1 50 км 9/9 600 м
[Cb cap]
+17.5 +16.0 91 +19 +19 1006.6 958.7 +16.0
З 4 50 км 10/10 600 м
[Cb cap]
+20.7 +16.4 76 +24 +24 комфорт 1005.8 958.5
З 2 50 км 6/3 600 м
[Cb cap Ci fib]
+25.3 +16.3 57 +29 +37 душно 1003.3 956.8
СЗ 3 50 км 3/3 600 м
[Cb cap]
+26.5 +15.1 50 +29 +33 жарко 1002.0 955.8
СЗ 3 50 км 4/3 600 м
[Cb cap Ci fib]
+23.3 +14.0 56 +27 +27 душно 1003.1 956.3 +27.5
З 2 н/о 3/3 600 м
[Cb cap]
+18.0 +14.6 81 +19 +19 1004.7 956.9
З 2 н/о 6/6 600 м
[Cb cap]
+16.7 +14.6 87 +17 +17 1004.0 956.1
ЮЗ 1 50 км 6/6 600 м
[Cb cap]
+14.2 +13.0 92 +14 +14 1004.1 955.8
ЮЗ 2 50 км 8/8 600 м
[Cb cap]
+15.6 +13.3 86 +15 +16 1004.0 955.9 +13.7
З 4 50 км 10/10 600 м
[Cb cap]
+18.3 +14.1 76 +19 +19 1003.0 955.4
З 2 10 км слаб. ливневой дождь 10/10 600 м
[Cb cap]
+17.2 +15.4 89 +18 +18 1003.1 955.4
З 2 10 км слаб. ливневой дождь 10/10 600 м
[Cb cap]
+17.2 +15.6 90 +18 +18 1003.4 955.6
З 2 50 км в посл. час ливневой дождь 10/10 600 м
[Cb cap]
+17.0 +15.7 92 +17 +17 1003.8 956.0 +19.1 8
З 3 н/о слаб. ливневой дождь 10/10 600 м
[Cb cap]
+16.4 +15.3 93 +16 +16 1004.2 956.3
З 3 н/о слаб. ливневой дождь 10/10 600 м
[Cb cap]
+16.4 +15.2 93 +16 +16 1004.5 956.5
З 2 10 км слаб. ливневой дождь 10/10 600 м
[Cb cap]
+16.5 +15.3 93 +17 +17 1004.5 956.6
З 1 50 км {ливн. дождь} 10/10 600 м
[Cb cap]
+17.1 +15.8 92 +18 +18 1005.1 957.2 +16.1 10
З 5 50 км 10/10 600 м
[Cb cap]
+18.6 +15.6 83 +19 +19 1005.3 957.7
З 5 50 км 10/8 600 м
[Cb cap Ci fib]
+21.5 +16.4 73 +25 +26 комфорт 1005.2 958.0
З 3 50 км 10/10 600 м
[Cb cap]
+21.2 +17.0 77 +25 +25 комфорт 1006.1 958.9
ЮЗ 2 50 км 9/9 600 м
[Cb cap]
+21.2 +16.8 76 +25 +25 комфорт 1006.8 959.5 +23.4
штиль 0 н/о 9/9 600 м
[Cb cap]
+19.6 +15.8 79 +21 +21 комфорт 1008.1 960.5
З 3 н/о 6/3 600 м
[Cb cap Ci fib]
+16.7 +14.4 86 +16 +16 1008.6 960.5
ЮЗ 1 50 км 8/3 600 м
[Cb cap Ci fib]
+13.9 +12.9 94 +14 +14 1010.7 962.0
З 2 50 км 8/3 1000 м
[Sc Ci fib]
+15.6 +13.5 87 +15 +17 1011.5 963.0 +13.5
З 5 10 км дым 3/3 600 м
[Cb cap]
+22.9 +13.3 55 +26 +30 жарко 1009.4 962.2
СВ 2 10 км дым 3/3 600 м
[Cb cap]
+26.5 +9.6 35 +27 +36 жарко 1007.8 961.2
СЗ 4 10 км дым 3/3 600 м
[Cb cap]
+27.1 +8.4 31 +27 +30 жарко 1007.5 961.0
С 3 10 км дым 6/3 600 м
[Cb cap Ci fib]
+23.7 +6.5 33 +24 +24 комфорт 1008.6 961.5 +27.7
ЮЗ 1 н/о 10/0
[Ci fib]
+15.6 +11.0 74 +16 +16 1010.9 962.4
Местоположение метеостанции Жигалово (Иркутская область, Россия): широта 54.80 долгота 105.10 высота над уровнем моря 419 м.
В архиве по умолчанию представлена погода в Жигалове за последнюю неделю. Архивные данные за месяц целиком и за предыдущие месяцы, начиная с января 2011 года, Вы можете получить, выбрав интересующий диапазон дат из раскрывающегося списка и нажав кнопку "Найти!".
*Определитесь, кто Вы:
Внимание! Время в таблицах - всемирное. Для получения местного времени необходимо прибавить поправку, которая равна 8 ч.
Смотрите также архив погоды в соседних городах и на ближайших метеорологических станциях:
Партнеры нашего сайта:      
Пояснения к столбцам:
  • Ветер - указаны скорость ветра в м/с - средняя за 10 мин, порывы в срок и между сроками (в фигурных скобках) и направление, откуда дует ветер: С - северный,
  • СВ - северо-восточный, В - восточный, ЮВ - юго-восточный, Ю - южный, ЮЗ - юго-западный, З - западный, СЗ - северо-западный.
  • Видимость - горизонтальная дальность видимости в метрах или километрах. При видимости от 1 до 10 км при отсутствии осадков обычно наблюдается дымка, при ухудшении видимости до 1 км и менее - туман. В сухую погоду видимость может ухудшаться дымом, пылью или мглою.
  • Явления - указаны атмосферные явления, наблюдавшиеся в срок или в последний час перед сроком; фигурными скобками обозначены явления, наблюдавшиеся между сроками (за 1-3 часа до срока); квадратными скобками обозначены град или гололедные отложения с указанием их диаметра в мм.
  • Облачность - указаны через наклонную черту общая и нижняя облачность в баллах и высота нижней границы облаков в метрах; квадратными скобками обозначены формы облаков: Ci - перистые, Cs - перисто-слоистые, Cc - перисто-кучевые, Ac - высококучевые, As - высокослоистые, Sc - слоисто-кучевые, Ns - слоисто-дождевые, Cu - кучевые, Cb - кучево-дождевые. Подробнее классификацию облаков см. в Атласе облаков (PDF).
  • T - Температура воздуха - температура, измеренная на высоте 2 м над землей.
  • Td - Температура точки росы - температура, при понижении до которой содержащийся в воздухе водяной пар достигнет насыщения.
  • f - Относительная влажность воздуха - влажноcть воздуха, измеренная на высоте 2 м над землей.
  • Te - Эффективная температура - температура, которую ощущает одетый по сезону человек в тени. Характеристика душности погоды. При расчете учитывается влияние влажности воздуха и скорости ветра на теплоощущения человека.
  • Tes - Эффективная температура на солнце - температура, которую ощущает человек, с поправкой на солнечный нагрев. Характеристика знойности погоды. Зависит от высоты солнца над горизонтом, облачности и скорости ветра. Ночью, в пасмурную погоду, а также при ветре 12 м/с и более поправка равна нулю.
  • P - Атмосферное давление - приведенное к уровню моря атмосферное давление.
  • Po - Атмосферное давление - измеренное на уровне метеостанции атмосферное давление.
  • Tmin - Минимальная температура - минимум температуры воздуха на высоте 2 м над землей.
  • Tmax - Максимальная температура - максимум температуры воздуха на высоте 2 м над землей.
  • R - Количество осадков - Количество выпавших осадков за период времени, мм. При наведении курсора мыши на число - период времени, за который выпало указанное количество осадков.
  • R24 - Количество осадков - Количество выпавших осадков за 24 часа, мм.
  • S - Снежный покров - Высота снежного покрова, см. При наведении курсора мыши на число - состояние снежного покрова и степень покрытия местности в баллах.